Regional Weather Roundup
Issued by NWS Wakefield, VA

Home | Current Version | Previous Version | Text Only | Print | Product List | Glossary Off
Versions: 1 2 3 4 5 6 7 8 9 10 11 12 13 14 15 16 17 18 19 20 21 22 23 24 25 26 27 28 29 30 31 32 33 34 35 36 37 38 39 40 41 42 43 44 45 46 47 48

000
ASUS41 KAKQ 061410
RWRAKQ

REGIONAL WEATHER ROUNDUP
NATIONAL WEATHER SERVICE WAKEFIELD VA
900 AM EST FRI MAR 06 2015

Note: "fair" indicates few or no clouds below 12,000 feet with no
significant weather and/or obstructions to visibility. * = Denotes
station may not report precipitation (e.g., rain,snow,etc.),
thunder or fog.

VAZ042-051-052>054-056-061500-
NORTHERN VIRGINIA

CITY           SKY/WX    TMP DP  RH WIND       PRES   REMARKS
WASH NATIONAL  MOSUNNY   19   2  47 N12       30.63R WCI   7
DULLES         SUNNY     13   0  56 NW12      30.61R WCI  -1
FORT BELVOIR   MOSUNNY   17   2  51 N6        30.62R
QUANTICO       SUNNY     18   4  54 NE15G23   30.64R WCI   4
FREDERICKSBRG* SUNNY     19   5  54 N9        30.62R
STAFFORD*      SUNNY     16  -1  48 CALM      30.65R
WARRENTON      SUNNY     18   7  61 N10       30.61R WCI   6
CULPEPER*      SUNNY     18   1  49 N7        30.60R
MANASSAS*      SUNNY     18   5  57 N14       30.63R WCI   4
LEESBURG*      SUNNY     16   5  62 N9        30.62R
WINCHESTER     SUNNY     14   0  52 CALM      30.57R
FRONT ROYAL*   FAIR      14   1  57 CALM      30.56S
LURAY*         FAIR      14  12  92 CALM      30.57R
$$

VAZ048-049-060>072-079>083-061500-
CENTRAL AND SOUTH CENTRAL VIRGINIA

CITY           SKY/WX    TMP DP  RH WIND       PRES   REMARKS
RICHMOND       MOSUNNY   20   5  52 N15G22    30.59R WCI   6
CHESTERFIELD*  FAIR      19  -2  38 N13G18    30.59R WCI   7
PETERSBURG*    SUNNY     22   8  54 N15       30.59R WCI   9
HANOVER        SUNNY     18   4  54 VRB6      30.61R
TAPPAHANNOCK*  SUNNY     20   3  48 N8G17     30.60R
QUINTON*       FAIR      19   6  58 N9        30.59R
CHARLOTTSVILLE SUNNY     15   5  64 NE5       30.56R
GORDONSVILLE*  FAIR      15   3  57 NE6       30.58R
ORANGE*        SUNNY     18   3  53 N12       30.59R WCI   5
LOUISA*        SUNNY     18   5  57 N9        30.56R
BUMPASS*       FAIR      17   3  55 NE6G16    30.59R
FARMVILLE*     SUNNY     21  13  69 NE8         N/A
CREWE*         FAIR      20   6  54 N8G17     30.56S
FORT PICKETT*  FAIR      20   9  63 N13       30.56S WCI   7
CHASE CITY*    FAIR      23   9  55 NE9       30.56R
CLARKSVILLE*   FAIR      23  10  58 N12       30.55R WCI  12
SOUTH HILL*    SUNNY     20   6  53 N10G18    30.61R WCI   9
LAWRENCEVILLE* FAIR      20   7  56 N8G18     30.56R
EMPORIA*       SUNNY     21   9  58 NW12      30.59R WCI   9
$$

VAZ088>098-061500-
SOUTHEAST VIRGINIA

CITY           SKY/WX    TMP DP  RH WIND       PRES   REMARKS
NORFOLK        MOSUNNY   23  11  60 N21G29    30.55R WCI   8
VIRGINIA BEACH MOSUNNY   27  14  58 N15       30.54R WCI  15
NORFOLK NAVAL  MOSUNNY   26  12  55 NE23      30.56R WCI  11
WEST POINT*    SUNNY     24   9  53 N8        30.60S
SALUDA*        PTSUNNY   20  11  68 N10       30.57R WCI   9
NEWPORT NEWS   PTSUNNY   25  13  60 N12       30.56S WCI  14
LANGLEY AFB    MIX PCPN  25  14  63 NE15G25   30.55R WCI  12
FORT EUSTIS    DRIZZLE   22  12  64 N9        30.55R
WILLIAMSBURG*    N/A    N/A N/A N/A MISG      30.57R
HR EXEC AP*      N/A    N/A N/A N/A MISG        N/A
FRANKLIN*      MOSUNNY   23  12  64 N12       30.57S WCI  11
WAKEFIELD      SUNNY     22   8  55 N9G18     30.57R
$$

VAZ020-022-025-037-045-061500-
WEST CENTRAL AND SOUTHWEST VIRGINIA

CITY           SKY/WX    TMP DP  RH WIND       PRES   REMARKS
STAUNTON*      SUNNY      8   4  84 NW5       30.56R
WAYNESBORO*    FAIR      11   5  77 CALM      30.51R
HOT SPRINGS VA SUNNY     10   7  89 CALM      30.25R
LYNCHBURG      SUNNY     19  10  68 N9        30.54R
DANVILLE       MOSUNNY   24  13  62 NE10      30.54R WCI  14
SOUTH BOSTON*  FAIR      23  10  57 NE9       30.57R
MARTINSVILLE   SUNNY     24  11  56 NE9       30.54R
ROANOKE        SUNNY     17   9  70 E6        30.53R
BLACKSBURG     SUNNY     12   6  77 CALM      30.45S
DUBLIN*        SUNNY     17  10  73 CALM      30.43S
MARION*        SUNNY     17   9  72 CALM      30.40F
HILLSVILLE*    SUNNY     14   8  77 N5        30.36S
RICHLANDS*     FLURRIES  10   6  82 CALM      30.37S
WISE*          SUNNY     14  10  85 CALM      30.37S
ABINGDON*      MOSUNNY   20  15  81 SE6       30.41S
$$

MDZ021>025-VAZ099-100-061500-
SOUTHERN MARYLAND AND THE DELMARVA PENINSULA

CITY           SKY/WX    TMP DP  RH WIND       PRES   REMARKS
PATUXENT RIVER MOSUNNY   19   6  57 N17       30.59R WCI   4
BAY BRIDGE APT   N/A     19   3  49 N8G18     30.62R
LEONARDTOWN    SUNNY     19   9  63 CALM      30.60R
DOVER          SUNNY     15   5  65 N16       30.59R WCI  -1
GEORGETOWN     SUNNY     18   6  59 N13G23    30.57R WCI   5
EASTON         SUNNY     18   7  62 N13G18    30.63R WCI   4
CAMBRIDGE      SUNNY     19   5  53 N13       30.58R WCI   7
SALISBURY      SUNNY     19   7  59 N12       30.56R WCI   7
OCEAN CITY     PTSUNNY   21  10  62 N13G21    30.55R WCI   9
WALLOPS ISLAND SUNNY     19   9  65 N14       30.56R WCI   6
ACCOMACK*      SUNNY     21   7  53 N10G16    30.56R WCI  10
$$

NCZ012>017-030>032-061500-
NORTH CENTRAL AND EASTERN NORTH CAROLINA

CITY           SKY/WX    TMP DP  RH WIND       PRES   REMARKS
ROANOKE RAPIDS FAIR      25  12  58 NE15      30.55S WCI  12
RALEIGH        MOSUNNY   25  12  58 NE10G18   30.52R WCI  15
ELIZABETH CITY MOSUNNY   26  16  65 N17       30.52R WCI  13
AHOSKIE*       SUNNY     23  12  63 N14       30.55S WCI  11
EDENTON*       PTSUNNY   27  19  72 N8G16     30.52R
CURRITUCK*     MOSUNNY   26  13  59 N20       30.53R WCI  12
KILL DEVIL HLS CLOUDY    28  19  71 N15G22    30.47R WCI  16
MANTEO         CLOUDY    28  20  74 N23G31    30.49R WCI  13
CAPE HATTERAS  CLOUDY    31  25  78 N14G31    30.43R WCI  21
TARBORO*       FAIR      26  14  59 N10       30.55R WCI  16
GOLDSBORO      SUNNY     27  18  70 N17       30.49R WCI  14
WASHINGTON     MOSUNNY   26  17  68 N13G21    30.51R WCI  15
GREENVILLE     MOSUNNY   28  18  64 N16       30.52R WCI  17
NEW BERN       CLOUDY    30  21  69 NE16      30.49R WCI  19
WILMINGTON     CLOUDY    33  21  61 N15G24    30.45R WCI  23
$$

VAZ048-061500-
ELSEWHERE

CITY           SKY/WX    TMP DP  RH WIND       PRES   REMARKS
HARRISBURG PA  SUNNY     11  -1  58 NW6       30.60R
BALTIMORE      SUNNY     16   3  56 N9        30.60R
ANNAPOLIS      SUNNY     18   5  57 N13       30.61R WCI   5
ANDREWS AFB    MOSUNNY   14   1  55 N12       30.59R WCI   1
PHILADELPHIA   SUNNY     15   3  59 N9        30.60R
HENDERSON NC   SUNNY     22   4  45 CALM      30.53R
GREENSBORO     FLURRIES  22  13  68 N10       30.48R WCI  11
ROCKY MOUNT    SUNNY     25  13  60 N13       30.54R WCI  14
$$

VAZ100-061500-
MARINE

STATION/POSITION TIME  TEMP    WIND        PRES    WAVE   SWELL
                       AIR SEA DIR/SP/G            HT/PER HT/PER
                 (UTC) (F)     (DEG/KT/KT) (MB)    (FT/S) (FT/S)
BRANDYWINE LGT   1400   16 30   20/ 20/ 23 1035.0R
CAPE MAY NJ      1400   17 32   10/  6/ 13 1034.5R
LEWES DE         1400   18 29   10/ 18/ 22 1034.8R
15NM E FENWICK I 1400   21 36              1033.2R   6/ 6
OCEAN-CITY-INLET 1400           30/ 14/ 19 1033.8S
WACHAPREAGUE VA  1400   20 33   10/  9/ 15 1034.4R
THOMAS POINT MD  1400           10/ 15/ 18   N/A
COVE POINT MD    1400   17      10/ 17/ 20 1035.5R
SOLOMONS ISLAND  1400      32                N/A
BISHOPS HEAD MD  1400   18 30   10/ 10/ 14 1035.1R
CAMBRIDGE MD     1400   16 32  360/ 15/ 18 1035.8R
LEWISETTA VA     1400   18 32   10/  9/ 14 1035.7R
RAPPAHANNOCK LGT 1400           10/ 24/ 27 1035.4R
STINGRAY PT      1400   22      20/ 19/ 25   N/A
YORK RVR RNG VA  1400   22      10/ 16/ 22 1032.1R
YORKTOWN VA      1400   21 34  350/ 13/ 16 1034.9R
DOMINION TERM VA 1400   22     360/  9/ 15 1034.8R
KIPTOPEKE VA     1400      38   30/ 12/ 19   N/A
CHES BAY BRIDGE  1400          360/ 24/ 28 1034.1R
CAPE HENRY VA    1400   22      10/ 19/ 23 1033.0R
CHESAPEAKE LGHT  1300   22      10/ 25/ 27 1033.3R
WILLOUBY STN VA  1400   23     360/ 22/ 26 1034.8R
S CRANEY ISL VA  1400           20/ 18/ 22 1034.5R
CAPE HENRY BUOY  1300      35                N/A     7/ 7   2/11
1ST LANDING BUOY 1400   23      10/ 17/ 21 1033.8R
OFFSHORE WE BUOY 1400      36                N/A     8/ 8   3/11
64NM E OF VA BCH 1400   33 52   10/ 23/ 27 1030.1R  10/ 9   5/ 9
DUCK PIER NC     1400   26 35   10/ 22/ 27 1031.3R
44100 DUCK FRF   1400      37                N/A    10/ 8   2/11
44056 DUCK FRF   1400      35                N/A     8/ 8   2/11
OREGON INLET NC  1400   29 38  350/ 17/ 26 1031.6R
HATTERAS NC      1400           10/ 29/ 34 1030.5R
CAPE LOOKOUT NC  1400           10/ 21/ 26 1030.6R
$$



USA.gov is the U.S. government's official web portal to all federal, state and local government web resources and services.